www.pogodaiklimat.ru

Погода и климат >> Архив погоды >> Россия >> Хабаровский край >> Вяземский


ПОГОДА в Вяземском

  • Прогноз погоды в Вяземском
  • Монитор погоды в Вяземском

АРХИВ ПОГОДЫ в Вяземском

Время (UTC), дата Ветер
(напр.,м/с)
 
Видим.   Явления Облачность Т
(С)
Тd
(С)
f
(%)
Тe
(С)
Тes
(С)
Комфортность P
(гПа)
Po
(гПа)
Тmin
(С)
Tmax
(С)
R
(мм)
R24
(мм)
S
(см)
09 10.07 ЮВ 1 20 км {гроза, ливн. осадки} 5/1 600 м
[Cu med, cong Ac lent Ci fib]
+24.5 +20.8 80 +31 +32 очень
душно
1011.5 1001.3 +28.3 8
12 10.07 ЮВ 1 20 км {гроза, ливн. осадки} 3/3 600 м
[Sc]
+21.0 +20.3 96 +27 +27 душно 1011.7 1001.4
15 10.07 ЮВ 1 20 км 1/0
[Ci fib]
+19.5 +18.8 96 +23 +23 комфорт 1013.1 1002.7
18 10.07 З 1 20 км 1/0
[Ac lent]
+17.5 +17.0 97 +19 +19 1011.7 1001.3
21 10.07 штиль 0 20 км 3/0
[Ci fib]
+20.1 +19.0 93 +23 +25 комфорт 1011.5 1001.2 +16.8
00 11.07 З 1 20 км 8/4 600 м
[Cu med, cong Ci fib]
+25.7 +19.3 68 +31 +35 очень
душно
1012.9 1002.7
03 11.07 Ю 2 20 км гроза без осадков 9/6 600 м
[Cb cap Ac trans]
+24.0 +19.5 76 +29 +31 душно 1011.5 1001.3
06 11.07 ЮЗ 2 20 км {гроза} 9/4 600 м
[Cb cap Ac trans]
+27.3 +19.6 63 +33 +34 очень
душно
1008.8 998.7
09 11.07 СЗ 1 20 км 9/6 600 м
[Cb cap Ac trans]
+26.2 +17.8 60 +31 +31 очень
душно
1007.4 997.3 +27.9
12 11.07 штиль 0 20 км 8/3 600 м
[Cb cap Ac trans]
+20.6 +19.3 92 +24 +24 комфорт 1007.6 997.3
15 11.07 Ю 1 20 км 8/0
[As trans]
+19.2 +17.9 92 +22 +22 комфорт 1007.6 997.3
18 11.07 Ю 1 20 км 6 баллов +17.2 +16.2 94 +18 +18 1006.4 996.0
21 11.07 штиль 0 20 км 6/3 600 м
[Cb cap Ac trans]
+18.6 +17.3 92 +19 +21 1005.0 994.7 +16.1
00 12.07 С 1 20 км 2 балла +24.9 +19.3 71 +30 +41 душно 1004.8 994.7
03 12.07 СВ 2 20 км 6 баллов +26.6 +19.5 65 +32 +39 очень
душно
1003.3 993.3
06 12.07 З 1 20 км в посл. час ливневой дождь 8/8 600 м
[Cb cap]
+22.5 +17.0 71 +27 +31 душно 1003.5 993.3
09 12.07 Ю 1 20 км 9/9 600 м
[Cb cap]
+21.6 +17.4 77 +26 +26 душно 1003.5 993.3 +28.7 0.1
12 12.07 ЮВ 1 20 км 8/6 600 м
[Cb cap Ac cuf]
+19.9 +17.5 86 +24 +24 комфорт 1003.6 993.3
15 12.07 штиль 0 20 км 9 баллов +18.2 +17.4 95 +19 +19 1003.6 993.3
18 12.07 СВ 1 20 км 4/3 600 м
[Sc Ci fib]
+16.8 +16.3 97 +18 +18 1003.7 993.3
21 12.07 СВ 1 20 км 8/0
[Ci sp]
+17.1 +16.4 96 +18 +20 1004.1 993.7 +16.4
00 13.07 СВ 3 20 км 3/0
[Cc]
+23.1 +18.0 73 +29 +36 очень
душно
1004.9 994.7
03 13.07 С 2 20 км 5/1 600 м
[Cu hum Ci sp]
+26.7 +17.2 56 +31 +40 душно 1004.8 994.7
06 13.07 СВ 3 20 км 4/3 600 м
[Cu med, cong Ci fib]
+27.2 +18.7 60 +32 +38 очень
душно
1003.3 993.3
09 13.07 В 2 20 км 6/3 600 м
[Cu med, cong Ci sp]
+24.9 +19.1 70 +30 +31 душно 1002.6 992.5 +27.8
12 13.07 Ю 1 20 км 8/3 600 м
[Sc diur, vesp Ac trans]
+20.5 +19.3 93 +26 +26 душно 1004.3 994.0
15 13.07 ЮЗ 1 20 км 8/0
[Ac trans]
+19.0 +18.1 95 +22 +22 комфорт 1004.7 994.4
18 13.07 штиль 0 20 км 3/0
[Ac lent Ci fib]
+17.2 +16.6 96 +17 +17 1006.4 996.0
21 13.07 С 1 20 км 3/0
[Ci fib]
+17.9 +16.9 94 +19 +21 1005.7 995.3 +15.9
00 14.07 С 1 20 км 3/0
[Ci fib]
+24.4 +15.9 59 +28 +38 душно 1006.2 996.0
03 14.07 Ю 1 20 км 8/5 600 м
[Cb cap Ci fib]
+26.6 +16.5 54 +30 +36 душно 1006.1 996.0
06 14.07 СВ 2 20 км 8/6 600 м
[Cb cap Ci fib]
+27.0 +17.5 56 +31 +35 душно 1006.1 996.0
09 14.07 СВ 2 20 км в посл. час ливневой дождь 9/8 600 м
[Cb cap Ac trans]
+22.2 +19.4 84 +28 +28 душно 1006.2 996.0 +28.8 0.7
12 14.07 ЮВ 1 20 км {ливн. осадки} 8/8 600 м
[Cb cap]
+20.5 +19.7 95 +26 +26 душно 1006.7 996.4
15 14.07 ЮВ 1 20 км 9/0
[Ac trans]
+20.4 +14.5 69 +24 +24 комфорт 1009.0 998.7
18 14.07 штиль 0 20 км 9/0
[Ac trans]
+17.1 +14.7 86 +17 +17 1009.1 998.7
21 14.07 штиль 0 20 км 9/4 600 м
[Sc Ac trans]
+19.1 +14.6 75 +20 +21 1009.9 999.5 +17.0
00 15.07 В 1 20 км 8/3 600 м
[Sc Ac trans]
+23.0 +15.6 63 +27 +31 душно 1011.6 1001.3
03 15.07 СВ 1 20 км 9/6 600 м
[Cb cap Ac cast]
+25.5 +16.6 58 +29 +31 душно 1011.5 1001.3
06 15.07 З 2 20 км 8/5 600 м
[Cb cap Ac trans Ci fib]
+25.5 +17.7 62 +30 +33 душно 1011.5 1001.3
09 15.07 Ю 1 20 км 8/3 600 м
[Cu med, cong Ac trans]
+25.8 +17.7 61 +30 +31 душно 1010.1 1000.0 +27.2
12 15.07 ЮЗ 1 20 км 9/4 600 м
[Cb cap Ac trans]
+22.5 +18.7 79 +28 +28 душно 1011.6 1001.3
15 15.07 штиль 0 20 км 10/10 600 м
[Sc]
+20.6 +18.7 89 +24 +24 комфорт 1013.0 1002.7
18 15.07 штиль 0 н/о н/о +18.9 +18.1 95 +20 +20 1013.1 1002.7
21 15.07 штиль 0 20 км 9/9 600 м
[Sc]
+20.0 +17.9 88 +23 +23 комфорт 1012.6 1002.2 +18.9
00 16.07 Ю 2 20 км 9 баллов +23.3 +16.6 66 +28 +29 душно 1014.3 1004.0
03 16.07 С 1 20 км 9/8 600 м
[Cb cap Ac cast]
+25.0 +17.7 64 +29 +31 душно 1012.9 1002.7
06 16.07 ЮЗ 1 20 км 7 баллов +27.5 +16.4 51 +31 +35 душно 1011.4 1001.3
09 16.07 З 1 20 км 6/3 600 м
[Cu med, cong Ac cast Ci ing]
+26.1 +17.4 59 +30 +31 душно 1010.1 1000.0 +28.0
12 16.07 штиль 0 20 км 2 балла +20.1 +18.6 91 +23 +23 комфорт 1011.6 1001.3
15 16.07 Ю 1 20 км 1 балл +17.2 +16.4 95 +18 +18 1011.8 1001.3
18 16.07 ЮВ 1 20 км 1 балл +16.9 +16.3 96 +18 +18 1011.8 1001.3
21 16.07 ЮВ 1 20 км 9/0
[]
+19.6 +17.6 88 +23 +24 комфорт 1009.2 998.8 +16.3
00 17.07 Ю 2 20 км 9 баллов +24.1 +17.1 65 +28 +29 душно 1008.9 998.7
03 17.07 З 2 20 км 9 баллов +23.7 +17.7 69 +28 +30 душно 1008.9 998.7

 

Местоположение метеостанции Вяземский (Хабаровский край, Россия): широта 47.52 долгота 134.70 высота над уровнем моря 89 м.

В архиве по умолчанию представлена погода в Вяземском за последнюю неделю. Архивные данные за месяц целиком и за предыдущие месяцы, начиная с января 2011 года, Вы можете получить, выбрав интересующий диапазон дат из раскрывающегося списка и нажав кнопку "Ввод!".


*Определитесь, кто Вы:
робот инопланетянин человек

Внимание! Время в таблицах - всемирное. Для получения местного времени необходимо прибавить поправку, которая равна 10 ч.

Смотрите также архив погоды в соседних городах и на ближайших метеорологических станциях:

Погода в Хоре (Хабаровский край, Россия) (43 км)
Погода в Лермонтовке (Хабаровский край, Россия) (51 км)
Погода в Георгиевке (Хабаровский край, Россия) (61 км)
Погода в Бичевой (Хабаровский край, Россия) (73 км)
Погода в Бычихе (Хабаровский край, Россия) (87 км)
Погода в Бикине (Хабаровский край, Россия) (89 км)
Погода в Оборе (Хабаровский край, Россия) (93 км)
Погода в Гвасюгах (Хабаровский край, Россия) (106 км)
Погода в Хабаровске Аэр. Большой (Хабаровский край, Россия) (108 км)
Погода в Хабаровске АМС (Хабаровский край, Россия) (112 км)

Пояснения к столбцам:

Ветер - указаны скорость ветра в м/с - средняя за 10 мин, порывы в срок и между сроками (в фигурных скобках) и направление, откуда дует ветер: С - северный, СВ - северо-восточный, В - восточный, ЮВ - юго-восточный, Ю - южный, ЮЗ - юго-западный, З - западный, СЗ - северо-западный.
Видимость - горизонтальная дальность видимости в метрах или километрах. При видимости от 1 до 10 км при отсутствии осадков обычно наблюдается дымка, при ухудшении видимости до 1 км и менее - туман. В сухую погоду видимость может ухудшаться дымом, пылью или мглою.
Явления - указаны атмосферные явления, наблюдавшиеся в срок или в последний час перед сроком; фигурными скобками обозначены явления, наблюдавшиеся между сроками (за 1-3 часа до срока); квадратными скобками обозначены град или гололедные отложения с указанием их диаметра в мм.
Облачность - указаны через наклонную черту общая и нижняя облачность в баллах и высота нижней границы облаков в метрах; квадратными скобками обозначены формы облаков: Ci - перистые, Cs - перисто-слоистые, Cc - перисто-кучевые, Ac - высококучевые, As - высокослоистые, Sc - слоисто-кучевые, Ns - слоисто-дождевые, Cu - кучевые, Cb - кучево-дождевые. Подробнее классификацию облаков см. в Атласе облаков (PDF).
T - Температура воздуха - температура, измеренная на высоте 2 м над землей.
Td - Температура точки росы - температура, при понижении до которой содержащийся в воздухе водяной пар достигнет насыщения.
f - Относительная влажность воздуха - влажноcть воздуха, измеренная на высоте 2 м над землей.
Te - Эффективная температура - температура, которую ощущает одетый по сезону человек в тени. Характеристика душности погоды. При расчете учитывается влияние влажности воздуха и скорости ветра на теплоощущения человека.
Tes - Эффективная температура на солнце - температура, которую ощущает человек, с поправкой на солнечный нагрев. Характеристика знойности погоды. Зависит от высоты солнца над горизонтом, облачности и скорости ветра. Ночью, в пасмурную погоду, а также при ветре 12 м/с и более поправка равна нулю.
P - Атмосферное давление - приведенное к уровню моря атмосферное давление.
Po - Атмосферное давление - измеренное на уровне метеостанции атмосферное давление.
Tmin - Минимальная температура - минимум температуры воздуха на высоте 2 м над землей.
Tmax - Максимальная температура - максимум температуры воздуха на высоте 2 м над землей.
R - Количество осадков - Количество выпавших осадков за период времени, мм. При наведении курсора мыши на число - период времени, за который выпало указанное количество осадков.
R24 - Количество осадков - Количество выпавших осадков за 24 часа, мм.
S - Снежный покров - Высота снежного покрова, см. При наведении курсора мыши на число - состояние снежного покрова и степень покрытия местности в баллах.